| time (UTC) | temp F | wind direction | speed MPH | gust MPH | rain 1hr in | rain 24hr in | rain mn in | humidity % | barometer mb |
| 20260901175525 | 89 | 320 | 0.0 | 4.0 | 0.00 | 0.01 | 0.01 | 74 | 1017.0 |
| 20260901175020 | 90 | 255 | 0.0 | 3.0 | 0.00 | 0.01 | 0.01 | 73 | 1016.9 |
| 20260901174534 | 91 | 320 | 0.0 | 3.0 | 0.00 | 0.01 | 0.01 | 73 | 1017.1 |
| 20260901174026 | 92 | 277 | 0.0 | 3.0 | 0.00 | 0.01 | 0.01 | 69 | 1017.2 |
| 20260901173517 | 93 | 161 | 0.0 | 3.0 | 0.00 | 0.01 | 0.01 | 72 | 1017.1 |
| 20260901173023 | 92 | 240 | 0.0 | 3.0 | 0.00 | 0.01 | 0.01 | 73 | 1017.1 |
| 20260901172513 | 93 | 6 | 0.0 | 3.0 | 0.00 | 0.01 | 0.01 | 73 | 1017.2 |
| 20260901172011 | 92 | 134 | 0.0 | 3.0 | 0.00 | 0.01 | 0.01 | 73 | 1017.2 |
| 20260901171509 | 92 | 277 | 0.0 | 4.0 | 0.00 | 0.01 | 0.01 | 72 | 1017.4 |
| 20260901171007 | 93 | 129 | 1.0 | 5.0 | 0.00 | 0.01 | 0.01 | 70 | 1017.3 |
| 20260901170509 | 92 | 342 | 0.0 | 4.0 | 0.00 | 0.01 | 0.01 | 75 | 1017.5 |
| 20260901170005 | 92 | 195 | 0.0 | 4.0 | 0.00 | 0.01 | 0.01 | 71 | 1017.5 |
| 20260901165505 | 92 | 95 | 0.0 | 4.0 | 0.00 | 0.01 | 0.01 | 73 | 1017.6 |
| 20260901165003 | 92 | 108 | 0.0 | 3.0 | 0.00 | 0.01 | 0.01 | 75 | 1017.7 |
| 20260901164601 | 91 | 162 | 0.0 | 3.0 | 0.00 | 0.01 | 0.01 | 76 | 1017.7 |
| 20260901164058 | 90 | 293 | 0.0 | 3.0 | 0.00 | 0.01 | 0.01 | 77 | 1017.7 |
| 20260901163557 | 89 | 148 | 0.0 | 2.0 | 0.00 | 0.01 | 0.01 | 79 | 1017.7 |
| 20260901163059 | 90 | 255 | 0.0 | 3.0 | 0.00 | 0.01 | 0.01 | 77 | 1017.8 |
| 20260901162553 | 89 | 130 | 0.0 | 3.0 | 0.00 | 0.01 | 0.01 | 77 | 1017.7 |
| 20260901162052 | 89 | 176 | 0.0 | 2.0 | 0.01 | 0.01 | 0.01 | 80 | 1017.7 |
| 20260901161553 | 88 | 319 | 0.0 | 2.0 | 0.01 | 0.01 | 0.01 | 80 | 1017.7 |
| 20260901161051 | 87 | 129 | 0.0 | 2.0 | 0.01 | 0.01 | 0.01 | 81 | 1017.7 |
| 20260901160555 | 87 | 53 | 0.0 | 3.0 | 0.01 | 0.01 | 0.01 | 81 | 1017.8 |
| 20260901160055 | 86 | 319 | 0.0 | 3.0 | 0.01 | 0.01 | 0.01 | 81 | 1017.8 |
| 20260901155550 | 86 | 334 | 0.0 | 3.0 | 0.01 | 0.01 | 0.01 | 83 | 1017.8 |
| 20260901155050 | 85 | 323 | 0.0 | 2.0 | 0.01 | 0.01 | 0.01 | 84 | 1017.9 |
| 20260901154550 | 85 | 257 | 0.0 | 1.0 | 0.01 | 0.01 | 0.01 | 84 | 1017.8 |
| 20260901154049 | 85 | 198 | 0.0 | 0.0 | 0.01 | 0.01 | 0.01 | 85 | 1017.8 |
| 20260901153549 | 85 | 170 | 0.0 | 1.0 | 0.01 | 0.01 | 0.01 | 85 | 1018.0 |
| 20260901153047 | 86 | 151 | 0.0 | 1.0 | 0.01 | 0.01 | 0.01 | 83 | 1018.1 |
| 20260901152545 | 87 | 300 | 0.0 | 2.0 | 0.01 | 0.01 | 0.01 | 82 | 1018.0 |
| 20260901152044 | 89 | 63 | 0.0 | 3.0 | 0.00 | 0.00 | 0.00 | 81 | 1018.1 |
| 20260901151544 | 89 | 172 | 0.0 | 3.0 | 0.00 | 0.00 | 0.00 | 80 | 1017.9 |
| 20260901151043 | 88 | 260 | 0.0 | 1.0 | 0.00 | 0.00 | 0.00 | 81 | 1017.9 |
| 20260901150541 | 88 | 276 | 0.0 | 1.0 | 0.00 | 0.00 | 0.00 | 78 | 1017.9 |
| 20260901150041 | 88 | 150 | 0.0 | 2.0 | 0.00 | 0.00 | 0.00 | 79 | 1017.9 |
| 20260901145542 | 89 | 169 | 0.0 | 2.0 | 0.00 | 0.00 | 0.00 | 78 | 1017.8 |
| 20260901145039 | 88 | 321 | 0.0 | 2.0 | 0.00 | 0.00 | 0.00 | 79 | 1017.8 |
| 20260901144537 | 88 | 338 | 0.0 | 2.0 | 0.00 | 0.00 | 0.00 | 81 | 1017.7 |
| 20260901144036 | 87 | 212 | 0.0 | 2.0 | 0.00 | 0.00 | 0.00 | 81 | 1017.7 |
| 20260901143534 | 87 | 169 | 0.0 | 1.0 | 0.00 | 0.00 | 0.00 | 83 | 1017.7 |
| 20260901143132 | 86 | 214 | 0.0 | 1.0 | 0.00 | 0.00 | 0.00 | 84 | 1017.7 |
| 20260901142530 | 86 | 76 | 0.0 | 2.0 | 0.00 | 0.00 | 0.00 | 83 | 1017.6 |
| 20260901142027 | 87 | 92 | 0.0 | 2.0 | 0.00 | 0.00 | 0.00 | 84 | 1017.6 |
| 20260901141526 | 86 | 325 | 0.0 | 2.0 | 0.00 | 0.00 | 0.00 | 85 | 1017.7 |
| 20260901141025 | 85 | 318 | 0.0 | 1.0 | 0.00 | 0.00 | 0.00 | 86 | 1017.6 |
| 20260901140522 | 84 | 113 | 0.0 | 1.0 | 0.00 | 0.00 | 0.00 | 86 | 1017.7 |
| 20260901140021 | 83 | 122 | 0.0 | 3.0 | 0.00 | 0.00 | 0.00 | 88 | 1017.7 |
| 20260901135525 | 83 | 124 | 0.0 | 3.0 | 0.00 | 0.00 | 0.00 | 87 | 1017.7 |
| 20260901135018 | 83 | 185 | 0.0 | 1.0 | 0.00 | 0.00 | 0.00 | 88 | 1017.7 |
| 20260901134517 | 82 | 266 | 0.0 | 1.0 | 0.00 | 0.00 | 0.00 | 89 | 1017.6 |
| 20260901134015 | 82 | 264 | 0.0 | 1.0 | 0.00 | 0.00 | 0.00 | 90 | 1017.7 |
| 20260901133515 | 81 | 183 | 0.0 | 1.0 | 0.00 | 0.00 | 0.00 | 90 | 1017.7 |
| 20260901133018 | 81 | 173 | 0.0 | 3.0 | 0.00 | 0.00 | 0.00 | 91 | 1017.7 |
| 20260901132510 | 80 | 325 | 0.0 | 3.0 | 0.00 | 0.00 | 0.00 | 92 | 1017.6 |
| 20260901132010 | 80 | 172 | 0.0 | 1.0 | 0.00 | 0.00 | 0.00 | 94 | 1017.7 |
| 20260901131507 | 80 | 253 | 0.0 | 1.0 | 0.00 | 0.00 | 0.00 | 95 | 1017.6 |
| 20260901131006 | 79 | 253 | 0.0 | 1.0 | 0.00 | 0.00 | 0.00 | 95 | 1017.7 |
| 20260901130506 | 79 | 312 | 0.0 | 0.0 | 0.00 | 0.00 | 0.00 | 95 | 1017.7 |
| 20260901130004 | 79 | 312 | 0.0 | 1.0 | 0.00 | 0.00 | 0.00 | 95 | 1017.7 |
| 20260901125503 | 79 | 312 | 0.0 | 1.0 | 0.00 | 0.00 | 0.00 | 95 | 1017.8 |
| 20260901125001 | 79 | 332 | 0.0 | 1.0 | 0.00 | 0.00 | 0.00 | 95 | 1017.7 |
| 20260901124501 | 78 | 290 | 0.0 | 1.0 | 0.00 | 0.00 | 0.00 | 95 | 1017.6 |
| 20260901124059 | 78 | 290 | 0.0 | 1.0 | 0.00 | 0.00 | 0.00 | 95 | 1017.7 |
| 20260901123559 | 78 | 290 | 0.0 | 0.0 | 0.00 | 0.00 | 0.00 | 95 | 1017.6 |
| 20260901123157 | 78 | 290 | 0.0 | 0.0 | 0.00 | 0.00 | 0.00 | 95 | 1017.4 |
| 20260901122556 | 78 | 294 | 0.0 | 0.0 | 0.00 | 0.00 | 0.00 | 95 | 1017.5 |
| 20260901122054 | 78 | 294 | 0.0 | 0.0 | 0.00 | 0.00 | 0.00 | 95 | 1017.5 |
| 20260901121604 | 78 | 294 | 0.0 | 0.0 | 0.00 | 0.00 | 0.00 | 95 | 1017.4 |
| 20260901121052 | 77 | 294 | 0.0 | 0.0 | 0.00 | 0.00 | 0.00 | 95 | 1017.3 |
| 20260901120552 | 77 | 294 | 0.0 | 0.0 | 0.00 | 0.00 | 0.00 | 95 | 1017.3 |
| 20260901120055 | 77 | 326 | 0.0 | 0.0 | 0.00 | 0.00 | 0.00 | 95 | 1017.3 |
| 20260901115550 | 77 | 326 | 0.0 | 1.0 | 0.00 | 0.00 | 0.00 | 95 | 1017.1 |
| 20260901115049 | 77 | 326 | 0.0 | 1.0 | 0.00 | 0.00 | 0.00 | 95 | 1017.2 |
| 20260901114548 | 77 | 326 | 0.0 | 0.0 | 0.00 | 0.00 | 0.00 | 95 | 1017.1 |
| 20260901114047 | 77 | 326 | 0.0 | 0.0 | 0.00 | 0.00 | 0.00 | 95 | 1017.0 |
| 20260901113547 | 77 | 326 | 0.0 | 0.0 | 0.00 | 0.00 | 0.00 | 95 | 1017.0 |
| 20260901113146 | 76 | 326 | 0.0 | 0.0 | 0.00 | 0.00 | 0.00 | 95 | 1017.0 |
| 20260901112545 | 76 | 326 | 0.0 | 0.0 | 0.00 | 0.00 | 0.00 | 95 | 1016.8 |
| 20260901112043 | 76 | 326 | 0.0 | 0.0 | 0.00 | 0.00 | 0.00 | 95 | 1016.7 |
| 20260901111544 | 76 | 326 | 0.0 | 0.0 | 0.00 | 0.00 | 0.00 | 95 | 1016.7 |
| 20260901111045 | 76 | 326 | 0.0 | 0.0 | 0.00 | 0.00 | 0.00 | 95 | 1016.6 |
| 20260901110541 | 76 | 326 | 0.0 | 0.0 | 0.00 | 0.00 | 0.00 | 95 | 1016.6 |
| 20260901110041 | 76 | 326 | 0.0 | 0.0 | 0.00 | 0.00 | 0.00 | 95 | 1016.4 |
| 20260901105540 | 76 | 326 | 0.0 | 0.0 | 0.00 | 0.00 | 0.00 | 95 | 1016.4 |
| 20260901105038 | 76 | 326 | 0.0 | 0.0 | 0.00 | 0.00 | 0.00 | 95 | 1016.4 |
| 20260901104553 | 76 | 326 | 0.0 | 0.0 | 0.00 | 0.00 | 0.00 | 95 | 1016.3 |
| 20260901104038 | 76 | 326 | 0.0 | 0.0 | 0.00 | 0.00 | 0.00 | 95 | 1016.3 |
| 20260901103542 | 76 | 326 | 0.0 | 0.0 | 0.00 | 0.00 | 0.00 | 95 | 1016.3 |
| 20260901103036 | 76 | 326 | 0.0 | 0.0 | 0.00 | 0.00 | 0.00 | 95 | 1016.4 |
| 20260901102536 | 76 | 326 | 0.0 | 0.0 | 0.00 | 0.00 | 0.00 | 95 | 1016.2 |
| 20260901102035 | 76 | 326 | 0.0 | 0.0 | 0.00 | 0.00 | 0.00 | 95 | 1016.1 |
| 20260901101536 | 76 | 326 | 0.0 | 0.0 | 0.00 | 0.00 | 0.00 | 95 | 1016.2 |
| 20260901101033 | 76 | 326 | 0.0 | 0.0 | 0.00 | 0.00 | 0.00 | 95 | 1016.1 |
| 20260901100535 | 76 | 326 | 0.0 | 0.0 | 0.00 | 0.00 | 0.00 | 95 | 1016.1 |
| 20260901100036 | 76 | 326 | 0.0 | 0.0 | 0.00 | 0.00 | 0.00 | 95 | 1016.1 |
| 20260901095530 | 76 | 323 | 0.0 | 0.0 | 0.00 | 0.00 | 0.00 | 95 | 1016.1 |
| 20260901095031 | 76 | 323 | 0.0 | 0.0 | 0.00 | 0.00 | 0.00 | 95 | 1016.1 |
| 20260901094533 | 76 | 323 | 0.0 | 0.0 | 0.00 | 0.00 | 0.00 | 95 | 1016.0 |
| 20260901094030 | 76 | 323 | 0.0 | 0.0 | 0.00 | 0.00 | 0.00 | 95 | 1016.1 |
| 20260901093534 | 76 | 323 | 0.0 | 0.0 | 0.00 | 0.00 | 0.00 | 95 | 1016.0 |
| 20260901093129 | 76 | 323 | 0.0 | 0.0 | 0.00 | 0.00 | 0.00 | 95 | 1016.0 |
| 20260901092531 | 76 | 323 | 0.0 | 0.0 | 0.00 | 0.00 | 0.00 | 94 | 1016.0 |
| 20260901092026 | 76 | 323 | 0.0 | 0.0 | 0.00 | 0.00 | 0.00 | 94 | 1016.1 |
| 20260901091526 | 76 | 323 | 0.0 | 0.0 | 0.00 | 0.00 | 0.00 | 94 | 1015.9 |
| 20260901091024 | 76 | 323 | 0.0 | 0.0 | 0.00 | 0.00 | 0.00 | 94 | 1016.0 |
| 20260901090526 | 76 | 323 | 0.0 | 0.0 | 0.00 | 0.00 | 0.00 | 94 | 1015.9 |
| 20260901090022 | 76 | 323 | 0.0 | 0.0 | 0.00 | 0.00 | 0.00 | 94 | 1016.0 |
| 20260901085622 | 76 | 323 | 0.0 | 0.0 | 0.00 | 0.00 | 0.00 | 94 | 1015.9 |
| 20260901085021 | 76 | 323 | 0.0 | 0.0 | 0.00 | 0.00 | 0.00 | 94 | 1015.9 |
| 20260901084521 | 76 | 323 | 0.0 | 0.0 | 0.00 | 0.00 | 0.00 | 94 | 1015.9 |
| 20260901084021 | 76 | 323 | 0.0 | 0.0 | 0.00 | 0.00 | 0.00 | 94 | 1016.0 |
| 20260901083520 | 76 | 323 | 0.0 | 0.0 | 0.00 | 0.00 | 0.00 | 94 | 1015.9 |
| 20260901083024 | 76 | 323 | 0.0 | 0.0 | 0.00 | 0.00 | 0.00 | 94 | 1015.8 |
| 20260901082519 | 76 | 323 | 0.0 | 0.0 | 0.00 | 0.00 | 0.00 | 94 | 1015.9 |
| 20260901082019 | 76 | 323 | 0.0 | 0.0 | 0.00 | 0.00 | 0.00 | 94 | 1015.9 |
| 20260901081521 | 76 | 323 | 0.0 | 0.0 | 0.00 | 0.00 | 0.00 | 94 | 1015.8 |
| 20260901081017 | 76 | 323 | 0.0 | 0.0 | 0.00 | 0.00 | 0.00 | 94 | 1015.8 |
| 20260901080517 | 76 | 323 | 0.0 | 0.0 | 0.00 | 0.00 | 0.00 | 94 | 1015.9 |
| 20260901080016 | 76 | 323 | 0.0 | 0.0 | 0.00 | 0.00 | 0.00 | 94 | 1015.8 |
| 20260901075516 | 76 | 323 | 0.0 | 0.0 | 0.00 | 0.00 | 0.00 | 94 | 1015.9 |
| 20260901075015 | 76 | 323 | 0.0 | 0.0 | 0.00 | 0.00 | 0.00 | 94 | 1016.0 |
| 20260901074515 | 76 | 323 | 0.0 | 0.0 | 0.00 | 0.00 | 0.00 | 94 | 1015.9 |
| 20260901074012 | 76 | 323 | 0.0 | 0.0 | 0.00 | 0.00 | 0.00 | 94 | 1016.0 |
| 20260901073514 | 76 | 323 | 0.0 | 0.0 | 0.00 | 0.00 | 0.00 | 94 | 1016.1 |
| 20260901073012 | 76 | 323 | 0.0 | 0.0 | 0.00 | 0.00 | 0.00 | 94 | 1016.2 |
| 20260901072509 | 76 | 323 | 0.0 | 0.0 | 0.00 | 0.00 | 0.00 | 94 | 1016.2 |
| 20260901072013 | 76 | 323 | 0.0 | 0.0 | 0.00 | 0.00 | 0.00 | 94 | 1016.3 |
| 20260901071513 | 76 | 323 | 0.0 | 0.0 | 0.00 | 0.00 | 0.00 | 94 | 1016.3 |
| 20260901071006 | 76 | 323 | 0.0 | 0.0 | 0.00 | 0.00 | 0.00 | 94 | 1016.5 |
| 20260901070506 | 76 | 323 | 0.0 | 0.0 | 0.00 | 0.00 | 0.00 | 94 | 1016.5 |
| 20260901070005 | 76 | 323 | 0.0 | 0.0 | 0.00 | 0.00 | 0.00 | 94 | 1016.5 |
| 20260901065505 | 76 | 323 | 0.0 | 0.0 | 0.00 | 0.00 | 0.00 | 94 | 1016.6 |
| 20260901065007 | 76 | 323 | 0.0 | 0.0 | 0.00 | 0.00 | 0.00 | 94 | 1016.7 |
| 20260901064503 | 76 | 323 | 0.0 | 0.0 | 0.00 | 0.00 | 0.00 | 94 | 1016.6 |
| 20260901064003 | 76 | 323 | 0.0 | 0.0 | 0.00 | 0.00 | 0.00 | 94 | 1016.6 |
| 20260901063502 | 76 | 323 | 0.0 | 0.0 | 0.00 | 0.00 | 0.00 | 94 | 1016.6 |
| 20260901063001 | 76 | 323 | 0.0 | 0.0 | 0.00 | 0.00 | 0.00 | 94 | 1016.7 |
| 20260901062559 | 76 | 323 | 0.0 | 0.0 | 0.00 | 0.00 | 0.00 | 94 | 1016.7 |
| 20260901062058 | 76 | 323 | 0.0 | 0.0 | 0.00 | 0.00 | 0.00 | 94 | 1016.7 |
| 20260901061602 | 76 | 323 | 0.0 | 0.0 | 0.00 | 0.00 | 0.00 | 94 | 1016.8 |
| 20260901061056 | 76 | 323 | 0.0 | 0.0 | 0.00 | 0.00 | 0.00 | 94 | 1016.8 |
| 20260901060558 | 76 | 323 | 0.0 | 0.0 | 0.00 | 0.00 | 0.00 | 94 | 1016.8 |
| 20260901060055 | 76 | 323 | 0.0 | 0.0 | 0.00 | 0.00 | 0.00 | 94 | 1016.9 |
| 20260901055554 | 76 | 323 | 0.0 | 0.0 | 0.00 | 0.00 | 0.00 | 93 | 1017.0 |
| 20260901055052 | 76 | 323 | 0.0 | 0.0 | 0.00 | 0.00 | 0.00 | 93 | 1017.0 |
| 20260901054553 | 76 | 323 | 0.0 | 0.0 | 0.00 | 0.00 | 0.00 | 94 | 1017.1 |
| 20260901054051 | 76 | 323 | 0.0 | 0.0 | 0.00 | 0.00 | 0.00 | 93 | 1017.1 |
| 20260901053551 | 76 | 323 | 0.0 | 0.0 | 0.00 | 0.00 | 0.00 | 93 | 1017.0 |
| 20260901053103 | 77 | 323 | 0.0 | 0.0 | 0.00 | 0.00 | 0.00 | 93 | 1017.0 |
| 20260901052547 | 77 | 323 | 0.0 | 0.0 | 0.00 | 0.00 | 0.00 | 93 | 1017.1 |
| 20260901052050 | 77 | 323 | 0.0 | 0.0 | 0.00 | 0.00 | 0.00 | 93 | 1017.1 |
| 20260901051549 | 77 | 323 | 0.0 | 0.0 | 0.00 | 0.00 | 0.00 | 93 | 1017.1 |
| 20260901051047 | 77 | 323 | 0.0 | 0.0 | 0.00 | 0.00 | 0.00 | 93 | 1017.1 |
| 20260901050547 | 77 | 323 | 0.0 | 0.0 | 0.00 | 0.00 | 0.00 | 93 | 1017.0 |
| 20260901050043 | 77 | 323 | 0.0 | 0.0 | 0.00 | 0.00 | 0.00 | 93 | 1017.1 |
| 20260901045544 | 77 | 323 | 0.0 | 0.0 | 0.00 | 0.00 | 0.00 | 93 | 1017.2 |
| 20260901045042 | 77 | 323 | 0.0 | 0.0 | 0.00 | 0.00 | 0.00 | 93 | 1017.3 |
| 20260901044554 | 77 | 323 | 0.0 | 0.0 | 0.00 | 0.00 | 0.00 | 93 | 1017.2 |
| 20260901044043 | 77 | 323 | 0.0 | 0.0 | 0.00 | 0.00 | 0.00 | 93 | 1017.2 |
| 20260901043540 | 77 | 323 | 0.0 | 0.0 | 0.00 | 0.00 | 0.00 | 93 | 1017.3 |
| 20260901043039 | 77 | 323 | 0.0 | 0.0 | 0.00 | 0.00 | 0.00 | 93 | 1017.2 |
| 20260901042538 | 77 | 323 | 0.0 | 0.0 | 0.00 | 0.00 | 0.00 | 93 | 1017.3 |
| 20260901042036 | 77 | 323 | 0.0 | 0.0 | 0.00 | 0.00 | 0.00 | 93 | 1017.3 |
| 20260901041536 | 77 | 323 | 0.0 | 0.0 | 0.00 | 0.00 | 0.00 | 93 | 1017.4 |
| 20260901041036 | 77 | 323 | 0.0 | 0.0 | 0.00 | 0.00 | 0.00 | 93 | 1017.4 |
| 20260901040534 | 78 | 323 | 0.0 | 0.0 | 0.00 | 0.00 | 0.00 | 93 | 1017.5 |
| 20260901040037 | 78 | 323 | 0.0 | 0.0 | 0.00 | 0.00 | 0.00 | 93 | 1017.5 |
| 20260901035532 | 78 | 323 | 0.0 | 0.0 | 0.00 | 0.00 | 0.00 | 93 | 1017.5 |
| 20260901035034 | 77 | 323 | 0.0 | 0.0 | 0.00 | 0.00 | 0.00 | 93 | 1017.5 |
| 20260901034530 | 77 | 323 | 0.0 | 0.0 | 0.00 | 0.00 | 0.00 | 92 | 1017.4 |
| 20260901034030 | 77 | 323 | 0.0 | 0.0 | 0.00 | 0.00 | 0.00 | 92 | 1017.5 |
| 20260901033529 | 78 | 323 | 0.0 | 0.0 | 0.00 | 0.00 | 0.00 | 92 | 1017.5 |
| 20260901033029 | 78 | 323 | 0.0 | 0.0 | 0.00 | 0.00 | 0.00 | 92 | 1017.6 |
| 20260901032529 | 78 | 323 | 0.0 | 0.0 | 0.00 | 0.00 | 0.00 | 92 | 1017.6 |
| 20260901032028 | 78 | 323 | 0.0 | 0.0 | 0.00 | 0.00 | 0.00 | 92 | 1017.6 |
| 20260901031526 | 78 | 323 | 0.0 | 0.0 | 0.00 | 0.00 | 0.00 | 92 | 1017.5 |
| 20260901031025 | 78 | 323 | 0.0 | 0.0 | 0.00 | 0.00 | 0.00 | 92 | 1017.6 |
| 20260901030525 | 78 | 323 | 0.0 | 0.0 | 0.00 | 0.00 | 0.00 | 92 | 1017.6 |
| 20260901030024 | 78 | 323 | 0.0 | 0.0 | 0.00 | 0.00 | 0.00 | 92 | 1017.7 |
| 20260901025525 | 78 | 323 | 0.0 | 0.0 | 0.00 | 0.00 | 0.00 | 92 | 1017.7 |
| 20260901025023 | 78 | 323 | 0.0 | 0.0 | 0.00 | 0.00 | 0.00 | 92 | 1017.7 |
| 20260901024528 | 78 | 323 | 0.0 | 0.0 | 0.00 | 0.00 | 0.00 | 91 | 1017.7 |
| 20260901024024 | 78 | 323 | 0.0 | 0.0 | 0.00 | 0.00 | 0.00 | 91 | 1017.7 |
| 20260901023521 | 78 | 323 | 0.0 | 0.0 | 0.00 | 0.00 | 0.00 | 91 | 1017.7 |
| 20260901023022 | 78 | 323 | 0.0 | 0.0 | 0.00 | 0.00 | 0.00 | 91 | 1017.7 |
| 20260901022520 | 78 | 323 | 0.0 | 0.0 | 0.00 | 0.00 | 0.00 | 91 | 1017.7 |
| 20260901022020 | 79 | 323 | 0.0 | 0.0 | 0.00 | 0.00 | 0.00 | 91 | 1017.7 |
| 20260901021519 | 79 | 323 | 0.0 | 0.0 | 0.00 | 0.00 | 0.00 | 90 | 1017.6 |
| 20260901021019 | 79 | 323 | 0.0 | 0.0 | 0.00 | 0.00 | 0.00 | 91 | 1017.7 |
| 20260901020518 | 79 | 323 | 0.0 | 0.0 | 0.00 | 0.00 | 0.00 | 90 | 1017.6 |
| 20260901020018 | 79 | 323 | 0.0 | 0.0 | 0.00 | 0.00 | 0.00 | 90 | 1017.6 |
| 20260901015517 | 79 | 323 | 0.0 | 0.0 | 0.00 | 0.00 | 0.00 | 90 | 1017.7 |
| 20260901015018 | 79 | 323 | 0.0 | 0.0 | 0.00 | 0.00 | 0.00 | 90 | 1017.7 |
| 20260901014517 | 79 | 323 | 0.0 | 0.0 | 0.00 | 0.00 | 0.00 | 90 | 1017.6 |
| 20260901014015 | 79 | 323 | 0.0 | 0.0 | 0.00 | 0.00 | 0.00 | 90 | 1017.5 |
| 20260901013515 | 79 | 323 | 0.0 | 0.0 | 0.00 | 0.00 | 0.00 | 90 | 1017.3 |
| 20260901013020 | 79 | 323 | 0.0 | 0.0 | 0.00 | 0.00 | 0.00 | 89 | 1017.4 |
| 20260901012521 | 79 | 323 | 0.0 | 0.0 | 0.00 | 0.00 | 0.00 | 89 | 1017.3 |
| 20260901012016 | 80 | 323 | 0.0 | 0.0 | 0.00 | 0.00 | 0.00 | 89 | 1017.3 |
| 20260901011513 | 80 | 323 | 0.0 | 0.0 | 0.00 | 0.00 | 0.00 | 89 | 1017.2 |
| 20260901011012 | 80 | 323 | 0.0 | 0.0 | 0.00 | 0.00 | 0.00 | 88 | 1017.1 |
| 20260901010511 | 80 | 323 | 0.0 | 0.0 | 0.00 | 0.00 | 0.00 | 88 | 1017.1 |
| 20260901010013 | 80 | 355 | 0.0 | 1.0 | 0.00 | 0.00 | 0.00 | 88 | 1017.0 |
| 20260901005511 | 80 | 355 | 0.0 | 2.0 | 0.00 | 0.00 | 0.00 | 88 | 1016.9 |
| 20260901005011 | 80 | 360 | 0.0 | 2.0 | 0.00 | 0.00 | 0.00 | 88 | 1016.9 |
| 20260901004528 | 80 | 304 | 0.0 | 0.0 | 0.00 | 0.00 | 0.00 | 87 | 1017.0 |
| 20260901004010 | 80 | 304 | 0.0 | 0.0 | 0.00 | 0.00 | 0.00 | 87 | 1017.0 |
| 20260901003511 | 80 | 304 | 0.0 | 0.0 | 0.00 | 0.00 | 0.00 | 87 | 1017.1 |
| 20260901003011 | 80 | 304 | 0.0 | 0.0 | 0.00 | 0.00 | 0.00 | 86 | 1017.1 |
| 20260901002509 | 80 | 304 | 0.0 | 0.0 | 0.00 | 0.00 | 0.00 | 86 | 1017.0 |
| 20260901002009 | 80 | 304 | 0.0 | 0.0 | 0.00 | 0.00 | 0.00 | 86 | 1017.0 |
| 20260901001519 | 80 | 304 | 0.0 | 0.0 | 0.00 | 0.00 | 0.00 | 86 | 1016.9 |
| 20260901001009 | 81 | 304 | 0.0 | 1.0 | 0.00 | 0.00 | 0.00 | 86 | 1016.8 |
| 20260901000508 | 81 | 304 | 0.0 | 1.0 | 0.00 | 0.00 | 0.00 | 85 | 1016.8 |
| 20260901000012 | 81 | 209 | 0.0 | 1.0 | 0.00 | 0.00 | 0.00 | 85 | 1016.8 |
| 20260831235505 | 81 | 195 | 0.0 | 1.0 | 0.00 | 0.00 | 0.00 | 85 | 1016.7 |
| 20260831235007 | 81 | 319 | 0.0 | 1.0 | 0.00 | 0.00 | 0.00 | 85 | 1016.7 |
| 20260831234505 | 82 | 319 | 0.0 | 2.0 | 0.00 | 0.00 | 0.00 | 85 | 1016.8 |
| 20260831234004 | 82 | 319 | 0.0 | 2.0 | 0.00 | 0.00 | 0.00 | 84 | 1016.7 |
| 20260831233504 | 82 | 304 | 0.0 | 2.0 | 0.00 | 0.00 | 0.00 | 84 | 1016.7 |
| 20260831233002 | 82 | 328 | 0.0 | 1.0 | 0.00 | 0.00 | 0.00 | 84 | 1016.9 |
| 20260831232501 | 82 | 314 | 0.0 | 1.0 | 0.00 | 0.00 | 0.00 | 83 | 1017.0 |
| 20260831232100 | 83 | 304 | 0.0 | 1.0 | 0.00 | 0.00 | 0.00 | 83 | 1017.0 |
| 20260831231601 | 83 | 304 | 0.0 | 2.0 | 0.00 | 0.00 | 0.00 | 83 | 1017.0 |
| 20260831231100 | 83 | 70 | 0.0 | 4.0 | 0.00 | 0.00 | 0.00 | 82 | 1016.9 |
| 20260831230558 | 83 | 184 | 0.0 | 2.0 | 0.00 | 0.00 | 0.00 | 82 | 1016.9 |
| 20260831225558 | 84 | 285 | 0.0 | 1.0 | 0.00 | 0.00 | 0.00 | 81 | 1016.9 |
| 20260831225057 | 84 | 168 | 0.0 | 5.0 | 0.00 | 0.00 | 0.00 | 81 | 1017.0 |
| 20260831224600 | 84 | 311 | 0.0 | 5.0 | 0.00 | 0.00 | 0.00 | 80 | 1016.9 |
| 20260831224057 | 85 | 342 | 0.0 | 4.0 | 0.00 | 0.00 | 0.00 | 79 | 1016.7 |
| 20260831223556 | 86 | 283 | 0.0 | 5.0 | 0.00 | 0.00 | 0.00 | 79 | 1016.6 |
| 20260831223054 | 86 | 288 | 0.0 | 6.0 | 0.00 | 0.00 | 0.00 | 78 | 1016.7 |
| 20260831222554 | 87 | 348 | 1.0 | 6.0 | 0.00 | 0.00 | 0.00 | 77 | 1016.7 |
| 20260831222053 | 88 | 314 | 0.0 | 3.0 | 0.00 | 0.00 | 0.00 | 76 | 1016.5 |
| 20260831221554 | 88 | 323 | 0.0 | 3.0 | 0.00 | 0.00 | 0.00 | 76 | 1016.5 |
| 20260831221052 | 89 | 220 | 0.0 | 3.0 | 0.00 | 0.00 | 0.00 | 77 | 1016.5 |
| 20260831220551 | 89 | 301 | 0.0 | 4.0 | 0.00 | 0.00 | 0.00 | 75 | 1016.3 |
| 20260831220052 | 89 | 304 | 0.0 | 4.0 | 0.00 | 0.00 | 0.00 | 74 | 1016.4 |
| 20260831215550 | 89 | 297 | 1.0 | 4.0 | 0.00 | 0.00 | 0.00 | 73 | 1016.5 |
| 20260831215049 | 90 | 326 | 0.0 | 5.0 | 0.00 | 0.00 | 0.00 | 73 | 1016.5 |
| 20260831214618 | 89 | 340 | 0.0 | 5.0 | 0.00 | 0.00 | 0.00 | 74 | 1016.4 |
| 20260831214048 | 89 | 338 | 0.0 | 3.0 | 0.00 | 0.00 | 0.00 | 73 | 1016.5 |
| 20260831213548 | 89 | 333 | 0.0 | 4.0 | 0.00 | 0.00 | 0.00 | 74 | 1016.6 |
| 20260831213048 | 89 | 304 | 0.0 | 4.0 | 0.00 | 0.00 | 0.00 | 74 | 1016.5 |
| 20260831212547 | 89 | 255 | 1.0 | 5.0 | 0.00 | 0.00 | 0.00 | 73 | 1016.5 |
| 20260831212150 | 90 | 213 | 1.0 | 4.0 | 0.00 | 0.00 | 0.00 | 73 | 1016.5 |
| 20260831211546 | 90 | 142 | 0.0 | 3.0 | 0.00 | 0.00 | 0.00 | 74 | 1016.5 |
| 20260831211047 | 90 | 268 | 0.0 | 4.0 | 0.00 | 0.00 | 0.00 | 75 | 1016.5 |
| 20260831210550 | 90 | 309 | 1.0 | 4.0 | 0.00 | 0.00 | 0.00 | 73 | 1016.6 |
| 20260831210043 | 90 | 290 | 1.0 | 5.0 | 0.00 | 0.00 | 0.00 | 72 | 1016.6 |
| 20260831205543 | 91 | 331 | 1.0 | 5.0 | 0.00 | 0.00 | 0.00 | 72 | 1016.7 |
| 20260831205042 | 91 | 304 | 0.0 | 4.0 | 0.00 | 0.00 | 0.00 | 74 | 1016.6 |
| 20260831204542 | 91 | 290 | 0.0 | 3.0 | 0.00 | 0.00 | 0.00 | 73 | 1016.6 |
| 20260831204041 | 91 | 250 | 0.0 | 7.0 | 0.00 | 0.00 | 0.00 | 74 | 1016.7 |
| 20260831203544 | 91 | 343 | 2.0 | 7.0 | 0.00 | 0.00 | 0.00 | 71 | 1016.7 |
| 20260831203039 | 92 | 268 | 0.0 | 11.0 | 0.00 | 0.00 | 0.00 | 72 | 1016.6 |
| 20260831202542 | 91 | 295 | 1.0 | 11.0 | 0.00 | 0.00 | 0.00 | 74 | 1016.6 |
| 20260831202038 | 91 | 114 | 1.0 | 4.0 | 0.00 | 0.00 | 0.00 | 75 | 1016.6 |
| 20260831201539 | 91 | 305 | 2.0 | 6.0 | 0.00 | 0.00 | 0.00 | 72 | 1016.5 |
| 20260831201036 | 92 | 345 | 1.0 | 6.0 | 0.00 | 0.00 | 0.00 | 73 | 1016.5 |
| 20260831200537 | 91 | 302 | 0.0 | 4.0 | 0.00 | 0.00 | 0.00 | 73 | 1016.5 |
| 20260831200041 | 92 | 127 | 1.0 | 6.0 | 0.00 | 0.00 | 0.00 | 72 | 1016.6 |
| 20260831195533 | 93 | 350 | 0.0 | 6.0 | 0.00 | 0.06 | 0.00 | 72 | 1016.5 |
| 20260831195035 | 92 | 321 | 0.0 | 3.0 | 0.00 | 0.06 | 0.00 | 73 | 1016.6 |
| 20260831194531 | 92 | 317 | 1.0 | 3.0 | 0.00 | 0.06 | 0.00 | 73 | 1016.7 |
| 20260831194032 | 92 | 109 | 0.0 | 3.0 | 0.00 | 0.06 | 0.00 | 75 | 1016.7 |
| 20260831193531 | 92 | 337 | 0.0 | 4.0 | 0.00 | 0.06 | 0.00 | 75 | 1016.7 |
| 20260831193033 | 91 | 326 | 1.0 | 4.0 | 0.00 | 0.06 | 0.00 | 75 | 1016.7 |
| 20260831192527 | 91 | 72 | 0.0 | 4.0 | 0.00 | 0.06 | 0.00 | 76 | 1016.6 |
| 20260831192028 | 90 | 321 | 0.0 | 6.0 | 0.00 | 0.06 | 0.00 | 75 | 1016.8 |
| 20260831191528 | 91 | 118 | 1.0 | 6.0 | 0.00 | 0.06 | 0.00 | 74 | 1016.7 |
| 20260831191025 | 92 | 143 | 1.0 | 6.0 | 0.00 | 0.06 | 0.00 | 78 | 1016.8 |
| 20260831190525 | 91 | 320 | 1.0 | 6.0 | 0.00 | 0.06 | 0.00 | 76 | 1016.8 |
| 20260831190042 | 90 | 1 | 0.0 | 3.0 | 0.00 | 0.06 | 0.00 | 79 | 1017.0 |
| 20260831185522 | 89 | 215 | 0.0 | 2.0 | 0.00 | 0.28 | 0.00 | 78 | 1017.0 |
| 20260831185023 | 90 | 294 | 0.0 | 2.0 | 0.00 | 0.28 | 0.00 | 77 | 1017.0 |
| 20260831184523 | 90 | 14 | 0.0 | 2.0 | 0.00 | 0.28 | 0.00 | 77 | 1017.0 |
| 20260831184021 | 90 | 257 | 0.0 | 4.0 | 0.00 | 0.28 | 0.00 | 78 | 1017.2 |
| 20260831183521 | 91 | 288 | 0.0 | 4.0 | 0.00 | 0.28 | 0.00 | 75 | 1017.2 |
| 20260831183027 | 91 | 232 | 0.0 | 2.0 | 0.00 | 0.28 | 0.00 | 79 | 1017.3 |
| 20260831182522 | 89 | 261 | 0.0 | 2.0 | 0.00 | 0.28 | 0.00 | 79 | 1017.2 |
| 20260831182019 | 89 | 228 | 0.0 | 3.0 | 0.00 | 0.28 | 0.00 | 77 | 1017.3 |
| 20260831181519 | 90 | 225 | 0.0 | 3.0 | 0.00 | 0.28 | 0.00 | 78 | 1017.3 |
| 20260831181018 | 90 | 92 | 0.0 | 7.0 | 0.00 | 0.28 | 0.00 | 78 | 1017.5 |
| 20260831180519 | 91 | 328 | 1.0 | 7.0 | 0.00 | 0.28 | 0.00 | 78 | 1017.6 |
| 20260831180017 | 90 | 236 | 0.0 | 5.0 | 0.00 | 0.28 | 0.00 | 79 | 1017.6 |